Change the Weather History Date:

Thursday, March 8, 2012

  Actual Average Record
Temperature  
Mean Temperature 66 °F 58 °F  
Max Temperature 80 °F 69 °F 86 °F (1907)
Min Temperature 52 °F 46 °F 26 °F (1901)
Degree Days  
Heating Degree Days 0 8  
Month to date heating degree days 34 74  
Since 1 July heating degree days 1464 1739  
Cooling Degree Days 1 1  
Month to date cooling degree days 20 8  
Year to date cooling degree days 49 25  
Growing Degree Days 15 (Base 50)    
Moisture  
Dew Point 65 °F    
Average Humidity 78    
Maximum Humidity 93    
Minimum Humidity 62    
Precipitation  
Precipitation 1.85 in 0.18 in 3.65 in (1998)
Month to date precipitation 2.42 1.37  
Year to date precipitation 19.48 11.05  
Snow  
Snow 0.00 in - T in (1920)
Month to date snowfall 0.0  
Since 1 July snowfall 0.0  
Snow Depth 0.00 in    
Sea Level Pressure  
Sea Level Pressure 30.06 in    
Wind  
Wind Speed 10 mph (SSE)    
Max Wind Speed 31 mph    
Max Gust Speed 39 mph    
Visibility 6 miles    
Events Rain , Thunderstorm    
T = Trace of Precipitation, MM = Missing Value Source: NWS Daily Summary

Daily Weather History Graph

Daily Weather History Graph

Search for Another Location

Airport or City:

Trip Planner

Search our weather history database for the weather conditions in past years. The results will help you decide how hot, cold, wet, or windy it might be!

Date:

Astronomy

Mar. 08, 2012 Rise Set
Actual Time 6:28 AM CST 6:13 PM CST
Civil Twilight 6:04 AM CST 6:38 PM CST
Nautical Twilight 5:35 AM CST 7:06 PM CST
Astronomical Twilight 5:07 AM CST 7:34 PM CST
Moon 6:54 PM CST (3/8) 6:16 AM CST (3/8)
Length of Visible Light 12h 34m
Length of Day
11h 45m
Full, 100% of the Moon is Illuminated
Mar 8
Full
Mar 14
Last Quarter
Mar 22
New
Mar 30
First Quarter
Apr 6
Full

Hourly Weather History & Observations

Time (CST) Temp. Dew Point Humidity Pressure Visibility Wind Dir Wind Speed Gust Speed Precip Events Conditions
12:53 AM 70.0 °F 64.0 °F 81% 30.08 in 9.0 mi SE 15.0 mph - N/A   Overcast
1:53 AM 70.0 °F 64.0 °F 81% 30.08 in 9.0 mi SSE 16.1 mph - N/A   Overcast
2:53 AM 70.0 °F 64.9 °F 84% 30.06 in 8.0 mi SE 16.1 mph - N/A   Overcast
3:53 AM 70.0 °F 64.9 °F 84% 30.06 in 8.0 mi SSE 6.9 mph - N/A   Overcast
4:53 AM 70.0 °F 64.9 °F 84% 30.08 in 8.0 mi SSE 6.9 mph - 0.00 in   Overcast
5:53 AM 69.8 °F 66.2 °F 88% 30.08 in 8.0 mi SE 8.1 mph - N/A   Overcast
6:53 AM 68.0 °F 66.0 °F 93% 30.09 in 8.0 mi ESE 9.2 mph - 0.00 in   Overcast
7:53 AM 68.0 °F 66.0 °F 93% 30.09 in 4.0 mi ESE 9.2 mph - 0.00 in Rain Light Rain
8:23 AM 68.0 °F 66.2 °F 94% 30.09 in 4.0 mi ESE 8.1 mph - 0.00 in Rain Light Rain
8:53 AM 69.1 °F 66.9 °F 93% 30.10 in 5.0 mi SE 10.4 mph - 0.00 in Rain Light Rain
9:53 AM 71.1 °F 66.9 °F 87% 30.11 in 6.0 mi SE 10.4 mph - 0.01 in   Overcast
10:31 AM 71.6 °F 68.0 °F 88% 30.10 in 5.0 mi SE 10.4 mph - 0.00 in Rain Light Rain
10:53 AM 71.1 °F 68.0 °F 90% 30.12 in 5.0 mi SE 5.8 mph - 0.00 in Rain Light Rain
11:21 AM 73.4 °F 66.2 °F 78% 30.10 in 8.0 mi South 10.4 mph 18.4 mph 0.00 in Rain Light Rain
11:53 AM 77.0 °F 68.0 °F 74% 30.10 in 9.0 mi South 12.7 mph 21.9 mph 0.00 in   Mostly Cloudy
12:53 PM 79.0 °F 66.9 °F 66% 30.06 in 10.0 mi SSE 16.1 mph 21.9 mph N/A   Partly Cloudy
1:53 PM 79.0 °F 64.9 °F 62% 30.04 in 10.0 mi South 9.2 mph 24.2 mph N/A   Overcast
2:53 PM 73.9 °F 66.9 °F 79% 30.05 in 4.0 mi SW 12.7 mph - 0.00 in Rain Light Rain
3:20 PM 73.4 °F 69.8 °F 88% 30.02 in 9.0 mi SSW 6.9 mph - 0.01 in Thunderstorm Mostly Cloudy
3:53 PM 73.9 °F 69.1 °F 85% 30.03 in 9.0 mi SSE 8.1 mph - 0.01 in   Partly Cloudy
4:12 PM 73.4 °F 69.8 °F 88% 30.02 in 8.0 mi SSE 5.8 mph - N/A Thunderstorm Thunderstorm
4:53 PM 71.1 °F 70.0 °F 96% 30.02 in 2.0 mi South 8.1 mph - 0.08 in Rain , Thunderstorm Heavy Thunderstorms and Rain
5:00 PM 71.6 °F 69.8 °F 94% 30.02 in 1.8 mi South 8.1 mph - 0.04 in Rain , Thunderstorm Thunderstorms and Rain
5:24 PM 69.8 °F 68.0 °F 94% 30.01 in 2.0 mi Calm Calm - 0.33 in Rain , Thunderstorm Heavy Thunderstorms and Rain
5:31 PM 69.8 °F 66.2 °F 88% 30.01 in 3.0 mi Calm Calm - 0.33 in Rain , Thunderstorm Light Thunderstorms and Rain
5:44 PM 71.6 °F 68.0 °F 88% 30.02 in 2.5 mi South 6.9 mph - 0.33 in Thunderstorm Overcast
5:53 PM 71.1 °F 69.1 °F 93% 30.02 in 2.5 mi South 6.9 mph - 0.34 in Rain , Thunderstorm Light Thunderstorms and Rain
6:16 PM 71.6 °F 69.8 °F 94% 30.01 in 2.5 mi South 8.1 mph - 0.00 in   Overcast
6:53 PM 71.1 °F 69.1 °F 93% 30.02 in 2.5 mi South 6.9 mph - 0.00 in   Overcast
7:00 PM 71.6 °F 69.8 °F 94% 30.01 in 7.0 mi SSE 8.1 mph - 0.00 in Rain Light Rain
7:53 PM 71.1 °F 69.1 °F 93% 30.03 in 5.0 mi South 8.1 mph - 0.01 in Rain Light Rain
8:53 PM 71.1 °F 69.1 °F 93% 30.03 in 7.0 mi South 8.1 mph - 0.00 in   Overcast
9:10 PM 71.6 °F 69.8 °F 94% 30.03 in 7.0 mi SSW 9.2 mph - 0.00 in   Overcast
9:25 PM 71.6 °F 69.8 °F 94% 30.02 in 7.0 mi South 9.2 mph - 0.00 in   Overcast
9:53 PM 71.1 °F 69.1 °F 93% 30.05 in 4.0 mi WSW 10.4 mph - 0.02 in Rain Light Rain
9:57 PM 69.8 °F 66.2 °F 88% 30.05 in 3.0 mi NW 27.6 mph 39.1 mph 0.01 in Rain , Thunderstorm Rain
10:02 PM 57.2 °F 55.4 °F 94% 30.05 in 2.5 mi North 25.3 mph 39.1 mph 0.04 in Rain , Thunderstorm Heavy Rain
10:10 PM 53.6 °F 53.6 °F 100% 30.09 in 1.0 mi North 25.3 mph 33.4 mph 0.19 in Rain , Thunderstorm Heavy Thunderstorms and Rain
10:31 PM 53.6 °F 51.8 °F 94% 30.12 in 0.8 mi NNE 18.4 mph 38.0 mph 0.56 in Rain , Thunderstorm Heavy Thunderstorms and Rain
10:42 PM 51.8 °F 51.8 °F 100% 30.11 in 1.0 mi NNE 15.0 mph 27.6 mph 0.78 in Rain , Thunderstorm Heavy Thunderstorms and Rain
10:53 PM 53.1 °F 51.1 °F 93% 30.13 in 3.0 mi NNE 17.3 mph 29.9 mph 0.99 in Rain , Thunderstorm Heavy Rain
11:03 PM 53.6 °F 51.8 °F 94% 30.11 in 5.0 mi NE 18.4 mph 26.5 mph 0.15 in Rain , Thunderstorm Rain
11:16 PM 53.6 °F 51.8 °F 94% 30.12 in 8.0 mi NE 9.2 mph 21.9 mph 0.30 in Rain Light Rain
11:24 PM 53.6 °F 51.8 °F 94% 30.11 in 8.0 mi NNE 16.1 mph 24.2 mph 0.36 in Rain , Thunderstorm Light Rain
11:53 PM 55.0 °F 52.0 °F 89% 30.14 in 10.0 mi NNE 11.5 mph 17.3 mph 0.38 in Rain Light Rain